Tracking 31027 objects as of 19-Jul-2025
HD Live streaming from Space Station
objects crossing your sky now

FENGYUN 1C DEB

Track FENGYUN 1C DEB now!
10-day predictions


NORAD ID: 30398
Int'l Code: 1999-025ADM
Perigee: 848.8 km
Apogee: 1,103.9 km
Inclination: 99.7 °
Period: 104.5 minutes
Semi major axis: 7347 km
RCS: 0.0135 m2 (small)
Launch date: May 10, 1999
Source: People's Republic of China (PRC)
Launch site: Taiyaun Space Center, China (TSC)

Note: This is SATELLITE DEBRIS
Your satellite tracking list
IRIDIUM 135
Track 1 satellite(s)




NASA's NSSDC Master Catalog

Two Line Element Set (TLE):
1 30398U 99025ADM 25199.63398988  .00000268  00000-0  27913-3 0  9999
2 30398  99.7258  92.5243 0173600 319.6588  71.1967 13.78510401927309
Source of the keplerian elements: AFSPC